Weather History for Pierre, SD

Change the Weather History Date:

Thursday, November 22, 2012

  Actual Average Record
Temperature  
Mean Temperature 38 °F 30 °F  
Max Temperature 56 °F 40 °F 68 °F (1974)
Min Temperature 20 °F 20 °F -2 °F (1985)
Degree Days  
Heating Degree Days 27 35  
Month to date heating degree days 617 643  
Since 1 July heating degree days 1272 1324  
Cooling Degree Days 0 0  
Month to date cooling degree days 0 0  
Year to date cooling degree days 1112 868  
Moisture  
Dew Point 29 °F    
Average Humidity 58    
Maximum Humidity 83    
Minimum Humidity 32    
Precipitation  
Precipitation 0.07 in 0.02 in 0.25 in (1909)
Month to date precipitation 0.46 0.60  
Year to date precipitation 10.92 19.30  
Snow  
Snow T in 0.20 in 2.80 in (1909)
Month to date snowfall 2.2 3.6  
Since 1 July snowfall 2.2 4.6  
Snow Depth 0.00 in    
Sea Level Pressure  
Sea Level Pressure 30.05 in    
Wind  
Wind Speed 21 mph (NW)    
Max Wind Speed 37 mph    
Max Gust Speed 45 mph    
Visibility 9 miles    
Events Rain , Snow    
T = Trace of Precipitation, MM = Missing Value Source: NWS Daily Summary

Daily Weather History Graph

Daily Weather History Graph

Search for Another Location

Airport:

Trip Planner

Search our weather history database for the weather conditions in past years. The results will help you decide how hot, cold, wet, or windy it might be!

Date:

Astronomy

Nov. 22, 2012 Rise Set
Actual Time 7:46 AM CST 5:07 PM CST
Civil Twilight 7:14 AM CST 5:39 PM CST
Nautical Twilight 6:39 AM CST 6:15 PM CST
Astronomical Twilight 6:04 AM CST 6:49 PM CST
Moon 2:04 PM CST (11/22) 1:57 AM CST (11/22)
Length of Visible Light 10h 24m
Length of Day
9h 20m
Waxing Gibbous, 71% of the Moon is Illuminated
Nov 22
Waxing Gibbous
Nov 28
Full
Dec 6
Last Quarter
Dec 13
New
Dec 19
First Quarter

Hourly Weather History & Observations

Time (CST) Temp. Windchill Dew Point Humidity Pressure Visibility Wind Dir Wind Speed Gust Speed Precip Events Conditions
12:53 AM 54.0 °F - 30.9 °F 41% 29.64 in 10.0 mi WNW 18.4 mph - N/A   Clear
1:53 AM 50.0 °F - 34.0 °F 54% 29.66 in 10.0 mi NW 15.0 mph - N/A   Clear
2:53 AM 46.9 °F - 36.0 °F 66% 29.70 in 10.0 mi WNW 11.5 mph - N/A   Clear
3:53 AM 46.0 °F 39.3 °F 36.0 °F 68% 29.73 in 10.0 mi WNW 16.1 mph - N/A   Clear
4:53 AM 46.0 °F 39.9 °F 37.0 °F 71% 29.76 in 10.0 mi WNW 13.8 mph - N/A   Partly Cloudy
5:53 AM 43.0 °F 36.4 °F 37.0 °F 80% 29.81 in 10.0 mi West 12.7 mph - N/A   Partly Cloudy
6:53 AM 45.0 °F 38.5 °F 37.9 °F 76% 29.84 in 10.0 mi WNW 13.8 mph - N/A   Overcast
7:53 AM 46.0 °F 38.8 °F 37.9 °F 73% 29.89 in 10.0 mi NW 18.4 mph 27.6 mph 0.00 in Rain Light Rain
8:11 AM 44.6 °F 36.6 °F 39.2 °F 81% 29.89 in 10.0 mi WNW 19.6 mph - 0.01 in Rain Rain
8:53 AM 44.1 °F 36.5 °F 39.9 °F 85% 29.94 in 10.0 mi NW 17.3 mph 27.6 mph 0.06 in Rain Light Rain
9:53 AM 44.1 °F 35.9 °F 39.0 °F 82% 29.98 in 10.0 mi NW 19.6 mph 27.6 mph 0.01 in   Overcast
10:53 AM 44.1 °F 35.7 °F 37.0 °F 76% 30.02 in 10.0 mi NW 20.7 mph 27.6 mph N/A   Clear
11:53 AM 44.1 °F 34.6 °F 32.0 °F 63% 30.04 in 10.0 mi NW 26.5 mph 35.7 mph N/A   Scattered Clouds
12:53 PM 46.9 °F - 30.9 °F 54% 30.04 in 10.0 mi NW 26.5 mph 32.2 mph N/A   Scattered Clouds
1:53 PM 48.0 °F - 28.9 °F 48% 30.06 in 10.0 mi NW 23.0 mph 29.9 mph N/A   Clear
2:53 PM 46.0 °F 37.4 °F 27.0 °F 47% 30.09 in 10.0 mi NNW 25.3 mph 41.4 mph N/A   Clear
3:53 PM 41.0 °F 30.9 °F 26.1 °F 55% 30.14 in 10.0 mi NNW 24.2 mph 33.4 mph N/A   Mostly Cloudy
4:53 PM 39.0 °F 29.9 °F 26.1 °F 60% 30.17 in 10.0 mi NNW 17.3 mph 26.5 mph N/A   Mostly Cloudy
5:53 PM 37.0 °F 28.5 °F 25.0 °F 62% 30.20 in 10.0 mi NNW 13.8 mph - N/A   Overcast
6:18 PM 33.8 °F 19.9 °F 28.4 °F 81% 30.22 in 1.8 mi NNW 31.1 mph 39.1 mph 0.00 in Snow Light Snow
6:33 PM 30.2 °F 15.4 °F 26.6 °F 86% 30.23 in 3.0 mi NW 28.8 mph 42.6 mph 0.00 in Snow Light Snow
6:53 PM 30.0 °F 14.9 °F 21.9 °F 72% 30.29 in 10.0 mi NW 29.9 mph 39.1 mph 0.00 in   Mostly Cloudy
7:53 PM 27.0 °F 11.6 °F 16.0 °F 63% 30.34 in 10.0 mi NW 26.5 mph 36.8 mph 0.00 in   Overcast
8:53 PM 26.1 °F 8.6 °F 15.1 °F 63% 30.38 in 10.0 mi NW 34.5 mph 41.4 mph N/A   Overcast
9:53 PM 25.0 °F 7.6 °F 14.0 °F 63% 30.42 in 10.0 mi NW 32.2 mph 39.1 mph N/A   Overcast
10:53 PM 23.0 °F 6.9 °F 12.0 °F 63% 30.45 in 10.0 mi NW 24.2 mph 32.2 mph N/A   Overcast
11:53 PM 21.0 °F 5.7 °F 10.0 °F 63% 30.49 in 10.0 mi NNW 19.6 mph 31.1 mph N/A   Clear